Zurück zum Katalog

SENTINEL-1

AktivWissenschaftSSO
NORAD 69897·PAYLOAD·🇩🇪 Germany

Gestartet Jul 7, 2026 von Vandenberg Space Force Base

Loading…

Nächste Überflüge (nächste 24 Stunden)

TLE

AktuellSource: Space-Track

Epoche: Sep 14, 2026, 13:01 UTC

1 69897U 26156AE  26257.54263871  .00001355  00000-0  14312-3 0  9995
2 69897  97.7489 156.7629 0000800 326.4243  33.6925 14.90872301 10311

Verfolge SENTINEL-1 in Echtzeit mit AllMySat

Download on the App Store